www.pogodaiklimat.ru

Погода и климат >> Архив погоды >> Россия >> Ханты-Мансийский АО >> Нефтеюганск


ПОГОДА в Нефтеюганске

АРХИВ ПОГОДЫ в Нефтеюганске

Время (UTC), дата Ветер
(напр.,м/с)
 
Видим.   Явления Облачность Т
(С)
Тd
(С)
f
(%)
Тe
(С)
Тes
(С)
Комфортность P
(гПа)
Po
(гПа)
Тmin
(С)
Tmax
(С)
R
(мм)
R24
(мм)
S
(см)
06 17.05 С 2 50 км 3/0
[Ci fib]
+1.8 -14.0 30 -0 +11 прохладно 1029.0 1023.9
09 17.05 З 2 50 км 4/3
[Cu hum Ci fib]
+3.8 -12.5 29 +2 +10 опасность
простуды
1028.2 1023.1
12 17.05 ЮЗ 1 50 км 8/5 600 м
[Cb cap Ci fib]
+5.0 -11.6 29 +5 +7 по сезону 1027.2 1022.1
15 17.05 Ю 2
{6}
50 км 7 баллов +4.3 -9.1 37 +2 +3 по сезону 1027.7 1022.7 +6.4
18 17.05 Ю 2 20 км 6/0
[Ac trans]
+2.5 -5.2 57 -0 -0 по сезону 1026.4 1021.3
21 17.05 Ю 2 20 км 4/0
[Ac trans]
+0.8 -4.6 67 -2 -2 по сезону 1025.5 1020.4
00 18.05 ЮЗ 3 50 км 8/0
[Ac trans Ci fib]
+1.6 -4.2 65 -2 -2 по сезону 1024.4 1019.3
03 18.05 ЮЗ 4
{7}
50 км 9/9 600 м
[Cb cap]
+5.8 -4.3 48 +3 +3 по сезону 1022.8 1017.8 +0.1
06 18.05 ЮЗ 6
{13}
50 км 10 баллов +8.9 -5.7 35 +6 +6 по сезону 1020.9 1016.0
09 18.05 ЮЗ 7
{13}
50 км 10 баллов +10.2 -4.2 36 +7 +7 по сезону 1018.2 1013.3
12 18.05 ЮЗ 6
{13}
50 км 10 баллов +10.8 -2.3 40 +8 +8 по сезону 1016.9 1012.0
15 18.05 З 4
{11}
50 км в посл. час ливневой дождь 10/5 600 м
[Cb cap Ac und]
+9.7 -1.6 45 +7 +7 по сезону 1014.9 1010.0 +10.9 0.0
18 18.05 ЮЗ 2 20 км {ливн. осадки} 9/3 600 м
[Cb cap Ac trans]
+8.1 -0.6 54 +7 +7 тепло 1013.5 1008.6
21 18.05 СЗ 3 20 км 9/0
[Ac trans]
+6.4 -0.3 62 +4 +4 по сезону 1012.8 1007.9
00 19.05 С 4
{12}
50 км 9 баллов +3.4 -1.0 73 -1 -1 по сезону 1015.7 1010.7
03 19.05 СЗ 5
{10}
50 км 8/8 600 м
[Sc]
+3.3 -5.0 54 -1 -1 прохладно 1017.8 1012.8 +2.8
06 19.05 СЗ 5
{11}
50 км 6 баллов +5.6 -7.9 37 +2 +5 прохладно 1021.0 1016.0
09 19.05 СЗ 4
{10}
50 км 4/3 600 м
[Cu hum Ci fib]
+7.6 -9.3 29 +5 +10 по сезону 1019.9 1015.0
12 19.05 З 3 50 км 4/3 600 м
[Cu hum Ci fib]
+8.5 -9.0 28 +7 +9 по сезону 1019.9 1015.0
15 19.05 В 3
{11}
50 км 10 баллов +6.6 -7.0 37 +4 +4 по сезону 1019.7 1014.7 +9.1
18 19.05 В 5 20 км 10/8 600 м
[Sc Ci fib]
+4.8 -5.6 47 +1 +1 по сезону 1017.7 1012.7
21 19.05 В 4 20 км 10/4 600 м
[Cb cap Ac und]
+4.2 -5.3 50 +1 +1 по сезону 1016.7 1011.7
00 20.05 В 4 50 км в посл. час ливневой дождь 10 баллов +1.6 -0.2 88 -4 -4 прохладно 1017.0 1012.0
03 20.05 В 4
{8}
50 км 10/10 300 м
[St]
+3.6 +1.0 83 -1 -1 прохладно 1015.5 1010.5 +1.5 0.3
06 20.05 В 3 50 км 10/5 300 м
[Cb cap Ac und]
+4.5 +0.8 77 +1 +3 прохладно 1015.9 1010.9
09 20.05 В 3 50 км 6/6 600 м
[Cb cap]
+7.5 +0.7 62 +5 +9 по сезону 1016.0 1011.1
12 20.05 В 3 50 км 3/3 600 м
[Cu med, cong]
+9.6 -1.8 45 +8 +10 по сезону 1015.5 1010.7
15 20.05 ЮВ 4
{6}
50 км 2 балла +6.9 -0.8 58 +4 +4 по сезону 1015.6 1010.7 +9.9
18 20.05 ЮВ 4 20 км 6/0
[Ac trans Ci fib]
+3.4 +0.4 81 -1 -1 прохладно 1013.9 1008.9
21 20.05 ЮВ 5 20 км 9/0
[Ac trans Ci fib]
+3.9 +1.8 86 -1 -1 по сезону 1011.8 1006.8
00 21.05 ЮВ 6 10 км слабый ливневой дождь 10 баллов +3.7 +1.7 87 -2 -2 прохладно 1009.0 1004.0
03 21.05 ЮВ 6-10
{11}
10 км слабый ливневой дождь 10/10 300 м
[Cb cap]
+5.7 +4.6 93 +1 +1 по сезону 1002.8 997.9 +3.1 4
06 21.05 ЮВ 5
{10}
50 км 10 баллов +10.8 +8.6 86 +8 +8 по сезону 999.5 994.7
09 21.05 З 4 50 км 10/4 600 м
[Cb cap Ac und]
+18.2 +9.8 58 +18 +20 тепло 995.8 991.2
12 21.05 ЮЗ 4 50 км в посл. час ливневой дождь 10 баллов +15.2 +10.0 71 +14 +14 тепло 998.0 993.3
15 21.05 ЮЗ 2
{10}
50 км 9 баллов +14.9 +11.7 81 +15 +15 тепло 999.4 994.7 +18.8 0.9
18 21.05 штиль 0 20 км 10/4 600 м
[Cb cap Ac und]
+11.8 +9.1 84 +11 +11 тепло 998.7 993.9
21 21.05 СВ 3 20 км 10/6 600 м
[Cb cap Ac und]
+10.3 +6.7 78 +8 +8 тепло 998.8 994.0
00 22.05 СВ 2 10 км слабый ливневой дождь 10 баллов +8.7 +6.0 83 +7 +7 тепло 999.5 994.7
03 22.05 В 4
{8}
4000 м слабый ливневой дождь 10/8 300 м
[Cb cap As op]
+8.1 +6.8 91 +5 +5 по сезону 995.8 990.9 +8.1 1
06 22.05 СВ 1 4000 м слабый дождь {ливн. осадки} 10/10 100 м
[Frnb Ns]
+8.9 +7.9 93 +8 +8 по сезону 992.5 987.7
09 22.05 С 5 4000 м слабый ливневой дождь 10/10 100 м
[Cb cap]
+8.1 +7.0 93 +4 +4 прохладно 991.0 986.2
12 22.05 С 6
{12}
4000 м слабый ливневой дождь 10 баллов +6.2 +4.7 90 +1 +1 очень
холодно
994.1 989.3
15 22.05 С 6
{12}
50 км {ливн. осадки} 10/10 300 м
[Cb cap]
+5.8 +3.2 83 +1 +1 прохладно 997.0 992.1 +9.5 24
18 22.05 СЗ 3 20 км {ливн. осадки} 10/5 600 м
[Cb cap Ac und]
+5.5 +3.5 87 +2 +2 по сезону 999.4 994.5
21 22.05 З 2 20 км 10/0
[Ac und]
+5.9 +3.8 86 +3 +3 по сезону 1000.8 995.9
00 23.05 З 3 50 км 7 баллов +4.4 +2.6 88 +1 +1 по сезону 1003.6 998.7
03 23.05 СЗ 5
{10}
50 км 8/4 600 м
[Cu med, cong Ci fib]
+5.8 +0.4 68 +2 +3 по сезону 1003.8 998.9 +4.2 0.0
06 23.05 СЗ 4 50 км 8/5 600 м
[Cu med, cong Ci fib]
+7.5 -1.7 52 +5 +8 по сезону 1004.6 999.8
09 23.05 СЗ 5 50 км 9/6 600 м
[Sc Ci sp]
+7.7 -3.2 46 +4 +7 прохладно 1005.3 1000.4
12 23.05 СВ 5 50 км 9/6 600 м
[Cb cap Ac trans]
+5.4 -2.1 58 +1 +2 очень
холодно
1005.3 1000.4
15 23.05 С 5
{9}
50 км 9 баллов +4.0 -2.2 64 -1 -1 холодно 1004.9 1000.0 +8.2
18 23.05 СВ 5
{10}
20 км 9/4 600 м
[Sc Ac trans]
+2.9 -2.3 69 -2 -2 холодно 1002.9 998.0
21 23.05 С 5 20 км 9/0
[Ac und]
+1.7 -3.0 71 -4 -4 холодно 1002.1 997.2
00 24.05 С 4 50 км 10/4 600 м
[Cb cap Ac und]
+0.7 -3.1 76 -4 -4 холодно 1002.1 997.1
03 24.05 С 4 50 км 10/10 300 м
[Cb cap]
+0.9 -3.1 75 -4 -4 очень
холодно
1002.3 997.3 +0.5

 

Местоположение метеостанции Нефтеюганск (Ханты-Мансийский АО, Россия): широта 61.07 долгота 72.62 высота над уровнем моря 40 м.

В архиве по умолчанию представлена погода в Нефтеюганске за последнюю неделю. Архивные данные за месяц целиком и за предыдущие месяцы, начиная с января 2011 года, Вы можете получить, выбрав интересующий диапазон дат из раскрывающегося списка и нажав кнопку "Ввод!".

Внимание! Время в таблицах - всемирное. Для получения местного времени необходимо прибавить поправку, которая в Нефтеюганске равна 5 ч.

Смотрите также архив погоды в соседних городах и на ближайших метеорологических станциях:

Погода в Сургуте (Ханты-Мансийский АО, Россия) (52 км)
Погода в Сытомино (Ханты-Мансийский АО, Россия) (75 км)
Погода в Угуте (Ханты-Мансийский АО, Россия) (99 км)
Погода в Салыме (Ханты-Мансийский АО, Россия) (127 км)
Погода в Когалыме (Ханты-Мансийский АО, Россия) (164 км)
Погода в Таурово (Ханты-Мансийский АО, Россия) (170 км)
Погода в Ханты-Мансийске (Ханты-Мансийский АО, Россия) (188 км)
Погода в Нижнесортымском (Ханты-Мансийский АО, Россия) (193 км)
Погода в Алтае (Ханты-Мансийский АО, Россия) (215 км)
Погода в Нижневартовске (Ханты-Мансийский АО, Россия) (215 км)

Пояснения к столбцам:

Ветер - указаны скорость ветра в м/с - средняя за 10 мин, порывы в срок и между сроками (в фигурных скобках) и направление, откуда дует ветер: С - северный, СВ - северо-восточный, В - восточный, ЮВ - юго-восточный, Ю - южный, ЮЗ - юго-западный, З - западный, СЗ - северо-западный.
Видимость - горизонтальная дальность видимости в метрах или километрах. При видимости от 1 до 10 км при отсутствии осадков обычно наблюдается дымка, при ухудшении видимости до 1 км и менее - туман. В сухую погоду видимость может ухудшаться дымом, пылью или мглою.
Явления - указаны атмосферные явления, наблюдавшиеся в срок или в последний час перед сроком; фигурными скобками обозначены явления, наблюдавшиеся между сроками (за 1-3 часа до срока); квадратными скобками обозначены град или гололедные отложения с указанием их диаметра в мм.
Облачность - указаны через наклонную черту общая и нижняя облачность в баллах и высота нижней границы облаков в метрах; квадратными скобками обозначены формы облаков: Ci - перистые, Cs - перисто-слоистые, Cc - перисто-кучевые, Ac - высококучевые, As - высокослоистые, Sc - слоисто-кучевые, Ns - слоисто-дождевые, Cu - кучевые, Cb - кучево-дождевые. Подробнее классификацию облаков см. в Атласе облаков (PDF).
T - Температура воздуха - температура, измеренная на высоте 2 м над землей.
Td - Температура точки росы - температура, при понижении до которой содержащийся в воздухе водяной пар достигнет насыщения.
f - Относительная влажность воздуха - влажноcть воздуха, измеренная на высоте 2 м над землей.
Te - Эффективная температура - температура, которую ощущает одетый по сезону человек в тени. Характеристика душности погоды. При расчете учитывается влияние влажности воздуха и скорости ветра на теплоощущения человека.
Tes - Эффективная температура на солнце - температура, которую ощущает человек, с поправкой на солнечный нагрев. Характеристика знойности погоды. Зависит от высоты солнца над горизонтом, облачности и скорости ветра. Ночью, в пасмурную погоду, а также при ветре 12 м/с и более поправка равна нулю.
P - Атмосферное давление - приведенное к уровню моря атмосферное давление.
Po - Атмосферное давление - измеренное на уровне метеостанции атмосферное давление.
Tmin - Минимальная температура - минимум температуры воздуха на высоте 2 м над землей.
Tmax - Максимальная температура - максимум температуры воздуха на высоте 2 м над землей.
R - Количество осадков - Количество выпавших осадков за период времени, мм. При наведении курсора мыши на число - период времени, за который выпало указанное количество осадков.
R24 - Количество осадков - Количество выпавших осадков за 24 часа, мм.
S - Снежный покров - Высота снежного покрова, см. При наведении курсора мыши на число - состояние снежного покрова и степень покрытия местности в баллах.